星链-4324 (STARLINK-4324 )

导读

STARLINK-4324是美国于2022年7月11日发射的星链卫星,属于SpaceX星链互联网卫星星座组网卫星,星链计划旨在为全球提供高速低延迟宽带互联网服务,该卫星入轨后承担全球偏远地区网络覆盖等任务,目前已在轨运行超三年,是星链低轨星座的组成单元。

Basic Information
目录编号:
53085
目录名称:
STARLINK-4324
国际标识:
2022-077AU
轨道中心:
EARTH
卫星名称:
星链-4324
卫星全名:
星链-4324 (STARLINK-4324 )
卫星状态:
在轨 (已飞行1523 天)
发射日期:
2022-07-11 UTC
国别 :
美国 (US)
星等 :
--
This satellite is enrolled in the Space Conjunction Data Service (SCDS) and the current flight risk assessment level is: No High Risk
Orbit Information
数据来源 国际轨道数据
星历时间: 2026-09-11T08:00:04+0800
8小时前
查看轨道信息
半长轴: 6846.479km
偏心率: 0.0001578
轨道倾角: 97.286°
近地点辐角 88.390°
升交点赤经 69.776°
平近点角 298.693°
近地点: 467.261km
远地点: 469.423km
周期: 93.964分钟
每日圈数: 15.325048
Detailed Information
固有亮度:
5
最大亮度:
2.5
卫星平台:
Starlink v1.5
覆盖范围:
全球
运营商:
太空探索技术公司
运营商所在国:
美国
制造商(研发单位):
太空探索技术公司
制造商所在国:
美国
使用方式:
暂无
Satellite Introduction
星链(Starlink)计划是由太空探索技术公司(SpaceX)提出的一个巨型低轨卫星互联网星座项目,计划在2019年至2024年间在太空搭建由约1.2万颗卫星组成的“星链”网络,其中1584颗将部署在地球上空550千米处的近地轨道,并从2020年开始工作。该卫星仍在工作。
2D Orbit Map
3D Orbit Map
Orbit Altitude Analysis Chart
Orbit Inclination Analysis Chart
Orbit Comprehensive Analysis Chart
View Comprehensive Chart
Conjunction Data List
Event ID Objects TCA Miss Dist (km) Collision Risk Probability Collision Risk Index (CRI) Action
CDM_260912-193805-186205-308521
2026-09-12T
19:38:39+0000
0.751 km
远距离
6.905641E-5 中风险 0.72
CDM_260913-033305-308506-806221
2026-09-13T
03:33:52+0000
0.948 km
远距离
3.254022E-5 中风险 0.65
CDM_260912-185105-186205-308521
2026-09-12T
18:51:43+0000
0.952 km
远距离
3.196215E-5 中风险 0.65
CDM_260912-154105-308505-795221
2026-09-12T
15:41:40+0000
1.105 km
极远距离
1.902308E-5 中风险 0.61
CDM_260913-024605-308506-806221
2026-09-13T
02:46:56+0000
1.418 km
极远距离
8.067936E-6 低风险 0.53
CDM_260911-075204-735705-308521
2026-09-11T
07:52:50+0000
1.595 km
极远距离
5.388403E-6 低风险 0.5
CDM_260913-071405-172705-308521
2026-09-13T
07:14:11+0000
1.816 km
极远距离
3.479416E-6 低风险 0.46
CDM_260912-065305-308506-878821
2026-09-12T
06:53:58+0000
1.892 km
极远距离
3.22932E-6 低风险 0.45
CDM_260911-115105-308506-106821
2026-09-11T
11:51:21+0000
2.212 km
极远距离
2.098524E-6 低风险 0.41
CDM_260911-075604-830505-308521
2026-09-11T
07:56:51+0000
2.322 km
极远距离
1.854837E-6 低风险 0.4
Miss Distance Evolution Trend with All Objects
Collision Probability Evolution Trend with All Objects